Kalaeloa, HI

11:27 PM HST on May 22, 2018 (GMT -1000)
Kalaeloa (John Rodgers Field)

Weather History for PHJR - January, 2012

Change the Weather History Date:

Saturday, January 14, 2012

  Actual Average (PHHI) Record (PHHI)
Temperature  
Mean Temperature 68 °F -  
Max Temperature 77 °F 74 °F 80 °F (2018)
Min Temperature 59 °F 60 °F 54 °F (2012)
Cooling Degree Days 3    
Growing Degree Days 18 (Base 50)    
Moisture  
Dew Point 61 °F    
Average Humidity 74    
Maximum Humidity 90    
Minimum Humidity 60    
Precipitation  
Precipitation 0.00 in - - ()
Sea Level Pressure  
Sea Level Pressure 29.93 in    
Wind  
Wind Speed 3 mph (South)    
Max Wind Speed 15 mph    
Max Gust Speed -    
Visibility 10 miles    
Events      
Averages and records for this station are not official NWS values.
T = Trace of Precipitation, MM = Missing Value Source: NWS Daily Summary

Daily Weather History Graph

Daily Weather History Graph

Search for Another Location

Airport or City:

Astronomy

Jan. 14, 2012 Rise Set
Actual Time 7:12 AM HST 6:10 PM HST
Civil Twilight 6:48 AM HST 6:34 PM HST
Nautical Twilight 6:21 AM HST 7:01 PM HST
Astronomical Twilight 5:54 AM HST 7:28 PM HST
Moon 11:46 PM HST (1/14) 10:55 AM HST (1/14)
Length of Visible Light 11h 45m
Length of Day
10h 58m
Waning Gibbous, 66% of the Moon is Illuminated
Jan 14
Waning Gibbous
Jan 15
Last Quarter
Jan 22
New
Jan 30
First Quarter
Feb 7
Full

Hourly Weather History & Observations

Time (HST) Temp. Dew Point Humidity Pressure Visibility Wind Dir Wind Speed Gust Speed Precip Events Conditions
12:53 AM 63.0 °F 57.0 °F 81% 29.92 in 10.0 mi Calm Calm - N/A   Clear
1:53 AM 62.1 °F 57.0 °F 84% 29.91 in 10.0 mi Calm Calm - N/A   Clear
2:53 AM 61.0 °F 57.0 °F 87% 29.89 in 10.0 mi NE 3.5 mph - N/A   Clear
3:53 AM 61.0 °F 55.9 °F 83% 29.88 in 10.0 mi NE 3.5 mph - N/A   Clear
4:53 AM 61.0 °F 55.0 °F 81% 29.90 in 10.0 mi Calm Calm - N/A   Clear
5:53 AM 59.0 °F 55.0 °F 87% 29.92 in 10.0 mi Calm Calm - N/A   Clear
6:53 AM 59.0 °F 55.9 °F 90% 29.94 in 10.0 mi NNE 3.5 mph - N/A   Clear
7:10 AM 59.0 °F 55.4 °F 88% 29.92 in 10.0 mi Calm Calm - N/A   Partly Cloudy
7:53 AM 61.0 °F 57.0 °F 87% 29.94 in 10.0 mi Calm Calm - N/A   Partly Cloudy
8:53 AM 72.0 °F 60.1 °F 66% 29.96 in 10.0 mi Calm Calm - N/A   Scattered Clouds
9:53 AM 73.9 °F 62.1 °F 66% 29.98 in 10.0 mi Calm Calm - N/A   Clear
10:53 AM 73.9 °F 63.0 °F 68% 29.97 in 10.0 mi South 3.5 mph - N/A   Mostly Cloudy
11:53 AM 77.0 °F 62.1 °F 60% 29.95 in 10.0 mi SW 9.2 mph - N/A   Clear
12:53 PM 77.0 °F 62.1 °F 60% 29.93 in 10.0 mi SW 8.1 mph - N/A   Clear
1:53 PM 77.0 °F 62.1 °F 60% 29.91 in 10.0 mi SSW 6.9 mph - N/A   Clear
2:53 PM 75.9 °F 63.0 °F 64% 29.89 in 10.0 mi SSW 5.8 mph - N/A   Partly Cloudy
3:53 PM 75.9 °F 63.0 °F 64% 29.90 in 10.0 mi SSW 6.9 mph - N/A   Partly Cloudy
4:53 PM 75.0 °F 63.0 °F 66% 29.91 in 10.0 mi South 4.6 mph - N/A   Clear
5:53 PM 73.9 °F 63.0 °F 68% 29.91 in 10.0 mi South 5.8 mph - N/A   Clear
6:53 PM 73.9 °F 64.0 °F 71% 29.93 in 10.0 mi SSW 3.5 mph - N/A   Clear
7:53 PM 73.9 °F 64.0 °F 71% 29.94 in 10.0 mi SSW 6.9 mph - N/A   Scattered Clouds
8:53 PM 73.9 °F 64.0 °F 71% 29.94 in 10.0 mi SSE 10.4 mph - 0.00 in   Partly Cloudy
9:53 PM 73.9 °F 64.0 °F 71% 29.93 in 10.0 mi SSE 13.8 mph - N/A   Clear
10:53 PM 73.9 °F 64.0 °F 71% 29.94 in 10.0 mi SSE 11.5 mph - N/A   Partly Cloudy
11:53 PM 73.9 °F 66.0 °F 76% 29.92 in 10.0 mi SSE 15.0 mph - N/A   Partly Cloudy